Voltar ao catálogo

STARLINK-11253

AtivoComunicaçõesVLEO
NORAD 60935·PAYLOAD·🇺🇸 United States

Lançado Aug 31, 2024 de Vandenberg Space Force Base

Loading…

Próximas Passagens (próximas 24 horas)

TLE

AtualizadoSource: CelesTrak SupGP

Época: Sep 14, 2026, 21:03 UTC

1 60935C 24155M   26257.87756944 -.00057062  00000+0 -46996-3 0  2577
2 60935  53.1562 128.9244 0001077  94.6054 220.4005 15.69741728    14

Acompanhe STARLINK-11253 em tempo real com AllMySat

Download on the App Store